Flag for U.S.A. Weather past 2 weeks in Worcester, Massachusetts, U.S.A.

Now
47 °F

Light rain. Mostly cloudy.


Feels Like: 39 °F
Forecast: 46 / 52 °F
Wind: 25 mph from North

Location: Worcester Regional Airport

Current Time: Oct 23, 2014 at 9:21:31 AM

Latest Report: Oct 23, 2014 at 8:54 AM


Visibility: 10 mi

Pressure: 29.65 "Hg

Humidity: 93%

Dew point: 45 °F

Location of WorcesterLocation

Historic Weather in Worcester — Graph

°F

Worcester temperature yesterday

Maximum temperature yesterday: 48 °F (at 12:54 AM)
Minimum temperature yesterday: 45 °F (at 6:54 PM)
Average temperature yesterday: 47 °F

Past Weeks' High & Low Weather Summary

 TemperatureHumidityPressure
High73 °F (Oct 15, 1:54 PM)100% (Oct 14, 3:54 AM)30.36 "Hg (Oct 14, 3:54 AM)
Low29 °F (Oct 20, 6:54 AM)41% (Oct 9, 12:54 PM)29.52 "Hg (Oct 18, 2:54 PM)
Average54 °F79%29.97 "Hg
* Reported Oct 8 7:54 AM — Oct 23 7:54 AM, Worcester, Weather by CustomWeather, © 2014

Note: Actual official high and low records may vary slightly from our data, if they occured in-between our weather recording intervals... More about our weather records

Advertising

Worcester weather history for previous 24 hours

 ConditionsComfort  
Time TempWeatherWind HumidityBarometerVisibility
7:54 AM
Oct 23
46 °FHeavy rain. Fog.17 mph96%29.72 "Hg3 mi
6:54 AM46 °FLight rain. Passing clouds.18 mph93%29.72 "Hg9 mi
5:54 AM45 °FRain. Fog.23 mph97%29.71 "Hg3 mi
4:54 AM45 °FRain. Fog.18 mph97%29.71 "Hg3 mi
3:54 AM45 °FLight rain. Low clouds.15 mph97%29.75 "Hg3 mi
2:54 AM45 °FLight rain. Mostly cloudy.22 mph93%29.73 "Hg3 mi
1:54 AM45 °FHeavy rain. Fog.18 mph93%29.82 "Hg3 mi
12:54 AM45 °FRain. Fog.17 mph97%29.81 "Hg3 mi
11:54 PM
Oct 22
45 °FLight rain. Fog.16 mph97%29.82 "Hg3 mi
10:54 PM45 °FLight rain. Low clouds.22 mph97%29.84 "Hg3 mi
9:54 PM45 °FRain. Fog.21 mph97%29.82 "Hg3 mi
8:54 PM45 °FLight rain. Fog.23 mph97%29.84 "Hg3 mi
7:54 PM45 °FLight rain. Fog.21 mph97%29.86 "Hg3 mi
6:54 PM45 °FLight rain. Fog.17 mph97%29.89 "Hg2 mi
5:54 PM46 °FLight rain. Fog.20 mph96%29.90 "Hg2 mi
4:54 PM47 °FLight rain. Fog.17 mph93%29.91 "Hg2 mi
3:54 PM47 °FLight rain. Fog.22 mph97%29.93 "Hg2 mi
3:03 PM47 °FLight rain. Fog.16 mph97%29.94 "Hg2 mi
2:54 PM47 °FLight rain. Fog.15 mph97%29.95 "Hg3 mi
1:54 PM47 °FLight rain. Fog.14 mph97%29.97 "Hg1 mi
12:54 PM47 °FLight rain. Fog.17 mph97%29.98 "Hg1 mi
12:02 PM47 °FLight rain. Fog.15 mph97%29.99 "Hg1 mi
10:54 AM47 °FLight rain. Fog.16 mph97%30.02 "Hg3 mi
9:54 AM48 °FLight rain. Fog.16 mph100%30.02 "Hg2 mi
Weather by CustomWeather, © 2014

See weather overviewHow to use our weather pages